Year,Month,Day,Hour,Minute,Value (Times are PST for insolation in W/m^2)
2021,10,03,00,00,0.00
2021,10,03,00,01,0.00
2021,10,03,00,02,0.00
2021,10,03,00,03,0.00
2021,10,03,00,04,0.00
2021,10,03,00,05,0.00
2021,10,03,00,06,0.00
2021,10,03,00,07,0.00
2021,10,03,00,08,0.00
2021,10,03,00,09,0.00
2021,10,03,00,10,0.00
2021,10,03,00,11,0.00
2021,10,03,00,12,0.00
2021,10,03,00,13,0.00
2021,10,03,00,14,0.00
2021,10,03,00,15,0.00
2021,10,03,00,16,0.00
2021,10,03,00,17,0.00
2021,10,03,00,18,0.00
2021,10,03,00,19,0.00
2021,10,03,00,20,0.00
2021,10,03,00,21,0.00
2021,10,03,00,22,0.00
2021,10,03,00,23,0.00
2021,10,03,00,24,0.00
2021,10,03,00,25,0.00
2021,10,03,00,26,0.00
2021,10,03,00,27,0.00
2021,10,03,00,28,0.00
2021,10,03,00,29,0.00
2021,10,03,00,30,0.00
2021,10,03,00,31,0.00
2021,10,03,00,32,0.00
2021,10,03,00,33,0.00
2021,10,03,00,34,0.00
2021,10,03,00,35,0.00
2021,10,03,00,36,0.00
2021,10,03,00,37,0.00
2021,10,03,00,38,0.00
2021,10,03,00,39,0.00
2021,10,03,00,40,0.00
2021,10,03,00,41,0.00
2021,10,03,00,42,0.00
2021,10,03,00,43,0.00
2021,10,03,00,44,0.00
2021,10,03,00,45,0.00
2021,10,03,00,46,0.00
2021,10,03,00,47,0.00
2021,10,03,00,48,0.00
2021,10,03,00,49,0.00
2021,10,03,00,50,0.00
2021,10,03,00,51,0.00
2021,10,03,00,52,0.00
2021,10,03,00,53,0.00
2021,10,03,00,54,0.00
2021,10,03,00,55,0.00
2021,10,03,00,56,0.00
2021,10,03,00,57,0.00
2021,10,03,00,58,0.00
2021,10,03,00,59,0.00
2021,10,03,01,00,0.00
2021,10,03,01,01,0.00
2021,10,03,01,02,0.00
2021,10,03,01,03,0.00
2021,10,03,01,04,0.00
2021,10,03,01,05,0.00
2021,10,03,01,06,0.00
2021,10,03,01,07,0.00
2021,10,03,01,08,0.00
2021,10,03,01,09,0.00
2021,10,03,01,10,0.00
2021,10,03,01,11,0.00
2021,10,03,01,12,0.00
2021,10,03,01,13,0.00
2021,10,03,01,14,0.00
2021,10,03,01,15,0.00
2021,10,03,01,16,0.00
2021,10,03,01,17,0.00
2021,10,03,01,18,0.00
2021,10,03,01,19,0.00
2021,10,03,01,20,0.00
2021,10,03,01,21,0.00
2021,10,03,01,22,0.00
2021,10,03,01,23,0.00
2021,10,03,01,24,0.00
2021,10,03,01,25,0.00
2021,10,03,01,26,0.00
2021,10,03,01,27,0.00
2021,10,03,01,28,0.00
2021,10,03,01,29,0.00
2021,10,03,01,30,0.00
2021,10,03,01,31,0.00
2021,10,03,01,32,0.00
2021,10,03,01,33,0.00
2021,10,03,01,34,0.00
2021,10,03,01,35,0.00
2021,10,03,01,36,0.00
2021,10,03,01,37,0.00
2021,10,03,01,38,0.00
2021,10,03,01,39,0.00
2021,10,03,01,40,0.00
2021,10,03,01,41,0.00
2021,10,03,01,42,0.00
2021,10,03,01,43,0.00
2021,10,03,01,44,0.00
2021,10,03,01,45,0.00
2021,10,03,01,46,0.00
2021,10,03,01,47,0.00
2021,10,03,01,48,0.00
2021,10,03,01,49,0.00
2021,10,03,01,50,0.00
2021,10,03,01,51,0.00
2021,10,03,01,52,0.00
2021,10,03,01,53,0.00
2021,10,03,01,54,0.00
2021,10,03,01,55,0.00
2021,10,03,01,56,0.00
2021,10,03,01,57,0.00
2021,10,03,01,58,0.00
2021,10,03,01,59,0.00
2021,10,03,02,00,0.00
2021,10,03,02,01,0.00
2021,10,03,02,02,0.00
2021,10,03,02,03,0.00
2021,10,03,02,04,0.00
2021,10,03,02,05,0.00
2021,10,03,02,06,0.00
2021,10,03,02,07,0.00
2021,10,03,02,08,0.00
2021,10,03,02,09,0.00
2021,10,03,02,10,0.00
2021,10,03,02,11,0.00
2021,10,03,02,12,0.00
2021,10,03,02,13,0.00
2021,10,03,02,14,0.00
2021,10,03,02,15,0.00
2021,10,03,02,16,0.00
2021,10,03,02,17,0.00
2021,10,03,02,18,0.00
2021,10,03,02,19,0.00
2021,10,03,02,20,0.00
2021,10,03,02,21,0.00
2021,10,03,02,22,0.00
2021,10,03,02,23,0.00
2021,10,03,02,24,0.00
2021,10,03,02,25,0.00
2021,10,03,02,26,0.00
2021,10,03,02,27,0.00
2021,10,03,02,28,0.00
2021,10,03,02,29,0.00
2021,10,03,02,30,0.00
2021,10,03,02,31,0.00
2021,10,03,02,32,0.00
2021,10,03,02,33,0.00
2021,10,03,02,34,0.00
2021,10,03,02,35,0.00
2021,10,03,02,36,0.00
2021,10,03,02,37,0.00
2021,10,03,02,38,0.00
2021,10,03,02,39,0.00
2021,10,03,02,40,0.00
2021,10,03,02,41,0.00
2021,10,03,02,42,0.00
2021,10,03,02,43,0.00
2021,10,03,02,44,0.00
2021,10,03,02,45,0.00
2021,10,03,02,46,0.00
2021,10,03,02,47,0.00
2021,10,03,02,48,0.00
2021,10,03,02,49,0.00
2021,10,03,02,50,0.00
2021,10,03,02,51,0.00
2021,10,03,02,52,0.00
2021,10,03,02,53,0.00
2021,10,03,02,54,0.00
2021,10,03,02,55,0.00
2021,10,03,02,56,0.00
2021,10,03,02,57,0.00
2021,10,03,02,58,0.00
2021,10,03,02,59,0.00
2021,10,03,03,00,0.00
2021,10,03,03,01,0.00
2021,10,03,03,02,0.00
2021,10,03,03,03,0.00
2021,10,03,03,04,0.00
2021,10,03,03,05,0.00
2021,10,03,03,06,0.00
2021,10,03,03,07,0.00
2021,10,03,03,08,0.00
2021,10,03,03,09,0.00
2021,10,03,03,10,0.00
2021,10,03,03,11,0.00
2021,10,03,03,12,0.00
2021,10,03,03,13,0.00
2021,10,03,03,14,0.00
2021,10,03,03,15,0.00
2021,10,03,03,16,0.00
2021,10,03,03,17,0.00
2021,10,03,03,18,0.00
2021,10,03,03,19,0.00
2021,10,03,03,20,0.00
2021,10,03,03,21,0.00
2021,10,03,03,22,0.00
2021,10,03,03,23,0.00
2021,10,03,03,24,0.00
2021,10,03,03,25,0.00
2021,10,03,03,26,0.00
2021,10,03,03,27,0.00
2021,10,03,03,28,0.00
2021,10,03,03,29,0.00
2021,10,03,03,30,0.00
2021,10,03,03,31,0.00
2021,10,03,03,32,0.00
2021,10,03,03,33,0.00
2021,10,03,03,34,0.00
2021,10,03,03,35,0.00
2021,10,03,03,36,0.00
2021,10,03,03,37,0.00
2021,10,03,03,38,0.00
2021,10,03,03,39,0.00
2021,10,03,03,40,0.00
2021,10,03,03,41,0.00
2021,10,03,03,42,0.00
2021,10,03,03,43,0.00
2021,10,03,03,44,0.00
2021,10,03,03,45,0.00
2021,10,03,03,46,0.00
2021,10,03,03,47,0.00
2021,10,03,03,48,0.00
2021,10,03,03,49,0.00
2021,10,03,03,50,0.00
2021,10,03,03,51,0.00
2021,10,03,03,52,0.00
2021,10,03,03,53,0.00
2021,10,03,03,54,0.00
2021,10,03,03,55,0.00
2021,10,03,03,56,0.00
2021,10,03,03,57,0.00
2021,10,03,03,58,0.00
2021,10,03,03,59,0.00
2021,10,03,04,00,0.00
2021,10,03,04,01,0.00
2021,10,03,04,02,0.00
2021,10,03,04,03,0.00
2021,10,03,04,04,0.00
2021,10,03,04,05,0.00
2021,10,03,04,06,0.00
2021,10,03,04,07,0.00
2021,10,03,04,08,0.00
2021,10,03,04,09,0.00
2021,10,03,04,10,0.00
2021,10,03,04,11,0.00
2021,10,03,04,12,0.00
2021,10,03,04,13,0.00
2021,10,03,04,14,0.00
2021,10,03,04,15,0.00
2021,10,03,04,16,0.00
2021,10,03,04,17,0.00
2021,10,03,04,18,0.00
2021,10,03,04,19,0.00
2021,10,03,04,20,0.00
2021,10,03,04,21,0.00
2021,10,03,04,22,0.00
2021,10,03,04,23,0.00
2021,10,03,04,24,0.00
2021,10,03,04,25,0.00
2021,10,03,04,26,0.00
2021,10,03,04,27,0.00
2021,10,03,04,28,0.00
2021,10,03,04,29,0.00
2021,10,03,04,30,0.00
2021,10,03,04,31,0.00
2021,10,03,04,32,0.00
2021,10,03,04,33,0.00
2021,10,03,04,34,0.00
2021,10,03,04,35,0.00
2021,10,03,04,36,0.00
2021,10,03,04,37,0.00
2021,10,03,04,38,0.00
2021,10,03,04,39,0.00
2021,10,03,04,40,0.00
2021,10,03,04,41,0.00
2021,10,03,04,42,0.00
2021,10,03,04,43,0.00
2021,10,03,04,44,0.00
2021,10,03,04,45,0.00
2021,10,03,04,46,0.00
2021,10,03,04,47,0.00
2021,10,03,11,52,353.00
2021,10,03,11,53,329.10
2021,10,03,11,54,92.50
2021,10,03,11,55,111.00
2021,10,03,11,56,113.90
2021,10,03,11,57,83.00
2021,10,03,11,58,70.00
2021,10,03,11,59,69.70
2021,10,03,12,00,74.90
2021,10,03,12,01,70.50
2021,10,03,12,02,70.50
2021,10,03,12,03,74.50
2021,10,03,12,04,76.30
2021,10,03,12,05,79.60
2021,10,03,12,06,83.00
2021,10,03,12,07,83.00
2021,10,03,12,08,142.50
2021,10,03,12,09,181.60
2021,10,03,12,10,125.10
2021,10,03,12,11,106.50
2021,10,03,12,12,102.40
2021,10,03,12,13,96.80
2021,10,03,12,14,92.40
2021,10,03,12,15,105.40
2021,10,03,12,16,114.00
2021,10,03,12,17,100.70
2021,10,03,12,18,95.00
2021,10,03,12,19,87.30
2021,10,03,12,20,82.50
2021,10,03,12,21,80.40
2021,10,03,12,22,76.00
2021,10,03,12,23,69.10
2021,10,03,12,24,67.00
2021,10,03,12,25,74.30
2021,10,03,12,26,74.50
2021,10,03,12,27,78.50
2021,10,03,12,28,74.00
2021,10,03,12,29,74.80
2021,10,03,12,30,76.60
2021,10,03,12,31,77.40
2021,10,03,12,32,94.40
2021,10,03,12,33,105.00
2021,10,03,12,34,88.80
2021,10,03,12,35,79.70
2021,10,03,12,36,79.20
2021,10,03,12,37,82.30
2021,10,03,12,38,87.40
2021,10,03,12,39,86.00
2021,10,03,12,40,89.50
2021,10,03,12,41,98.70
2021,10,03,12,42,112.20
2021,10,03,12,43,119.30
2021,10,03,12,44,116.10
2021,10,03,12,45,112.20
2021,10,03,12,46,122.70
2021,10,03,12,47,128.20
2021,10,03,12,48,114.60
2021,10,03,12,49,118.50
2021,10,03,12,50,160.50
2021,10,03,12,51,188.60
2021,10,03,12,52,198.90
2021,10,03,12,53,177.00
2021,10,03,12,54,129.70
2021,10,03,12,55,112.30
2021,10,03,12,56,126.50
2021,10,03,12,57,130.00
2021,10,03,12,58,126.20
2021,10,03,12,59,140.20
2021,10,03,13,00,163.20
2021,10,03,13,01,154.30
2021,10,03,13,02,109.70
2021,10,03,13,03,136.50
2021,10,03,13,04,121.00
2021,10,03,13,05,137.10
2021,10,03,13,06,149.30
2021,10,03,13,07,135.60
2021,10,03,13,08,138.70
2021,10,03,13,09,127.20
2021,10,03,13,10,108.00
2021,10,03,13,11,111.00
2021,10,03,13,12,110.00
2021,10,03,13,13,108.50
2021,10,03,13,14,116.50
2021,10,03,13,15,123.00
2021,10,03,13,16,382.30
2021,10,03,13,17,512.00
2021,10,03,13,18,317.20
2021,10,03,13,19,287.00
2021,10,03,13,20,256.10
2021,10,03,13,21,116.50
2021,10,03,13,22,80.20
2021,10,03,13,23,52.50
2021,10,03,13,24,57.90
2021,10,03,13,25,46.60
2021,10,03,13,26,40.00
2021,10,03,13,27,40.00
2021,10,03,13,28,39.00
2021,10,03,13,29,39.00
2021,10,03,13,30,39.30
2021,10,03,13,31,40.00
2021,10,03,13,32,41.10
2021,10,03,13,33,42.00
2021,10,03,13,34,42.00
2021,10,03,13,35,42.00
2021,10,03,13,36,42.00
2021,10,03,13,37,42.00
2021,10,03,13,38,41.50
2021,10,03,13,39,39.60
2021,10,03,13,40,38.00
2021,10,03,13,41,37.00
2021,10,03,13,42,38.40
2021,10,03,13,43,39.80
2021,10,03,13,44,43.60
2021,10,03,13,45,43.30
2021,10,03,13,46,39.00
2021,10,03,13,47,39.00
2021,10,03,13,48,39.00
2021,10,03,13,49,39.00
2021,10,03,13,50,39.60
2021,10,03,13,51,41.50
2021,10,03,13,52,42.00
2021,10,03,13,53,41.90
2021,10,03,13,54,40.00
2021,10,03,13,55,40.00
2021,10,03,13,56,41.50
2021,10,03,13,57,46.30
2021,10,03,13,58,47.40
2021,10,03,13,59,44.60
2021,10,03,14,00,45.60
2021,10,03,14,01,50.50
2021,10,03,14,02,60.90
2021,10,03,14,03,72.40
2021,10,03,14,04,87.80
2021,10,03,14,05,93.10
2021,10,03,14,06,79.00
2021,10,03,14,07,66.50
2021,10,03,14,08,64.50
2021,10,03,14,09,74.00
2021,10,03,14,10,76.50
2021,10,03,14,11,66.00
2021,10,03,14,12,59.50
2021,10,03,14,13,58.00
2021,10,03,14,14,61.20
2021,10,03,14,15,67.30
2021,10,03,14,16,69.00
2021,10,03,14,17,66.00
2021,10,03,14,18,69.30
2021,10,03,14,19,102.60
2021,10,03,14,20,123.40
2021,10,03,14,21,103.20
2021,10,03,14,22,66.30
2021,10,03,14,23,59.10
2021,10,03,14,24,53.00
2021,10,03,14,25,48.20
2021,10,03,14,26,47.00
2021,10,03,14,27,57.00
2021,10,03,14,28,52.40
2021,10,03,14,29,38.40
2021,10,03,14,30,25.70
2021,10,03,14,31,26.20
2021,10,03,14,32,29.00
2021,10,03,14,33,31.90
2021,10,03,14,34,33.00
2021,10,03,14,35,34.70
2021,10,03,14,36,30.50
2021,10,03,14,37,35.60
2021,10,03,14,38,39.30
2021,10,03,14,39,44.70
2021,10,03,14,40,57.10
2021,10,03,14,41,62.00
2021,10,03,14,42,58.30
2021,10,03,14,43,57.50
2021,10,03,14,44,61.50
2021,10,03,14,45,49.40
2021,10,03,14,46,53.20
2021,10,03,14,47,54.70
2021,10,03,14,48,53.80
2021,10,03,14,49,46.50
2021,10,03,14,50,40.10
2021,10,03,14,51,37.50
2021,10,03,14,52,41.10
2021,10,03,14,53,52.60
2021,10,03,14,54,46.90
2021,10,03,14,55,47.40
2021,10,03,14,56,55.30
2021,10,03,14,57,62.00
2021,10,03,14,58,71.00
2021,10,03,14,59,82.40
2021,10,03,15,00,86.00
2021,10,03,15,01,86.00
2021,10,03,15,02,85.10
2021,10,03,15,03,67.30
2021,10,03,15,04,67.10
2021,10,03,15,05,62.00
2021,10,03,15,06,57.50
2021,10,03,15,07,46.50
2021,10,03,15,08,39.90
2021,10,03,15,09,43.10
2021,10,03,15,10,63.00
2021,10,03,15,11,65.00
2021,10,03,15,12,65.00
2021,10,03,15,13,65.00
2021,10,03,15,14,56.00
2021,10,03,15,15,41.40
2021,10,03,15,16,36.50
2021,10,03,15,17,33.50
2021,10,03,15,18,33.00
2021,10,03,15,19,39.00
2021,10,03,15,20,83.60
2021,10,03,15,21,79.70
2021,10,03,15,22,94.70
2021,10,03,15,23,89.50
2021,10,03,15,24,41.30
2021,10,03,15,25,34.30
2021,10,03,15,26,32.20
2021,10,03,15,27,32.00
2021,10,03,15,28,32.30
2021,10,03,15,29,34.60
2021,10,03,15,30,38.10
2021,10,03,15,31,47.00
2021,10,03,15,32,41.50
2021,10,03,15,33,37.80
2021,10,03,15,34,55.20
2021,10,03,15,35,48.90
2021,10,03,15,36,45.70
2021,10,03,15,37,40.00
2021,10,03,15,38,37.30
2021,10,03,15,39,31.80
2021,10,03,15,40,41.30
2021,10,03,15,41,45.10
2021,10,03,15,42,46.60
2021,10,03,15,43,44.80
2021,10,03,15,44,44.00
2021,10,03,15,45,60.00
2021,10,03,15,46,34.10
2021,10,03,15,47,29.50
2021,10,03,15,48,29.50
2021,10,03,15,49,30.10
2021,10,03,15,50,31.00
2021,10,03,15,51,44.10
2021,10,03,15,52,49.00
2021,10,03,15,53,61.70
2021,10,03,15,54,63.60
2021,10,03,15,55,53.30
2021,10,03,15,56,49.70
2021,10,03,15,57,48.60
2021,10,03,15,58,47.30
2021,10,03,15,59,49.70
2021,10,03,16,00,55.20
2021,10,03,16,01,57.70
2021,10,03,16,02,56.00
2021,10,03,16,03,53.50
2021,10,03,16,04,53.30
2021,10,03,16,05,49.50
2021,10,03,16,06,59.20
2021,10,03,16,07,70.30
2021,10,03,16,08,67.10
2021,10,03,16,09,49.90
2021,10,03,16,10,44.30
2021,10,03,16,11,45.40
2021,10,03,16,12,38.30
2021,10,03,16,13,36.20
2021,10,03,16,14,39.40
2021,10,03,16,15,40.00
2021,10,03,16,16,40.00
2021,10,03,16,17,41.50
2021,10,03,16,18,50.90
2021,10,03,16,19,51.20
2021,10,03,16,20,50.70
2021,10,03,16,21,48.50
2021,10,03,16,22,46.00
2021,10,03,16,23,42.30
2021,10,03,16,24,37.30
2021,10,03,16,25,33.00
2021,10,03,16,26,28.90
2021,10,03,16,27,28.00
2021,10,03,16,28,27.80
2021,10,03,16,29,26.00
2021,10,03,16,30,26.00
2021,10,03,16,31,26.00
2021,10,03,16,32,25.50
2021,10,03,16,33,22.60
2021,10,03,16,34,21.00
2021,10,03,16,35,21.00
2021,10,03,16,36,22.80
2021,10,03,16,37,26.40
2021,10,03,16,38,31.10
2021,10,03,16,39,36.60
2021,10,03,16,40,40.00
2021,10,03,16,41,42.20
2021,10,03,16,42,47.20
2021,10,03,16,43,54.10
2021,10,03,16,44,59.30
2021,10,03,16,45,61.20
2021,10,03,16,46,46.90
2021,10,03,16,47,46.30
2021,10,03,16,48,45.90
2021,10,03,16,49,44.90
2021,10,03,16,50,46.00
2021,10,03,16,51,46.00
2021,10,03,16,52,48.30
2021,10,03,16,53,53.50
2021,10,03,16,54,64.00
2021,10,03,16,55,74.00
2021,10,03,16,56,71.30
2021,10,03,16,57,59.30
2021,10,03,16,58,48.50
2021,10,03,16,59,44.80
2021,10,03,17,00,42.50
2021,10,03,17,01,42.00
2021,10,03,17,02,42.10
2021,10,03,17,03,43.30
2021,10,03,17,04,38.50
2021,10,03,17,05,37.60
2021,10,03,17,06,38.20
2021,10,03,17,07,36.00
2021,10,03,17,08,33.60
2021,10,03,17,09,32.20
2021,10,03,17,10,32.90
2021,10,03,17,11,35.00
2021,10,03,17,12,36.70
2021,10,03,17,13,37.00
2021,10,03,17,14,43.50
2021,10,03,17,15,46.00
2021,10,03,17,16,46.00
2021,10,03,17,17,54.30
2021,10,03,17,18,54.00
2021,10,03,17,19,53.00
2021,10,03,17,20,71.10
2021,10,03,17,21,57.20
2021,10,03,17,22,37.50
2021,10,03,17,23,36.70
2021,10,03,17,24,49.30
2021,10,03,17,25,56.00
2021,10,03,17,26,43.60
2021,10,03,17,27,34.00
2021,10,03,17,28,34.80
2021,10,03,17,29,32.60
2021,10,03,17,30,30.80
2021,10,03,17,31,33.00
2021,10,03,17,32,32.50
2021,10,03,17,33,30.80
2021,10,03,17,34,28.60
2021,10,03,17,35,25.50
2021,10,03,17,36,23.20
2021,10,03,17,37,20.80
2021,10,03,17,38,19.00
2021,10,03,17,39,19.60
2021,10,03,17,40,21.80
2021,10,03,17,41,22.00
2021,10,03,17,42,23.40
2021,10,03,17,43,25.70
2021,10,03,17,44,27.60
2021,10,03,17,45,27.60
2021,10,03,17,46,18.10
2021,10,03,17,47,18.80
2021,10,03,17,48,18.30
2021,10,03,17,49,18.50
2021,10,03,17,50,18.50
2021,10,03,17,51,19.00
2021,10,03,17,52,19.00
2021,10,03,17,53,16.40
2021,10,03,17,54,16.00
2021,10,03,17,55,16.00
2021,10,03,17,56,16.00
2021,10,03,17,57,16.00
2021,10,03,17,58,14.00
2021,10,03,17,59,12.00
2021,10,03,18,00,11.30
2021,10,03,18,01,11.00
2021,10,03,18,02,11.00
2021,10,03,18,03,10.80
2021,10,03,18,04,8.50
2021,10,03,18,05,7.00
2021,10,03,18,06,7.00
2021,10,03,18,07,7.00
2021,10,03,18,08,7.00
2021,10,03,18,09,7.00
2021,10,03,18,10,7.00
2021,10,03,18,11,7.00
2021,10,03,18,12,7.00
2021,10,03,18,13,7.50
2021,10,03,18,14,9.00
2021,10,03,18,15,9.00
2021,10,03,18,16,9.00
2021,10,03,18,17,9.00
2021,10,03,18,18,7.40
2021,10,03,18,19,8.80
2021,10,03,18,20,9.00
2021,10,03,18,21,9.00
2021,10,03,18,22,9.00
2021,10,03,18,23,9.00
2021,10,03,18,24,8.00
2021,10,03,18,25,7.00
2021,10,03,18,26,5.50
2021,10,03,18,27,5.00
2021,10,03,18,28,5.00
2021,10,03,18,29,5.00
2021,10,03,18,30,5.00
2021,10,03,18,31,5.00
2021,10,03,18,32,5.00
2021,10,03,18,33,5.00
2021,10,03,18,34,5.00
2021,10,03,18,35,5.00
2021,10,03,18,36,0.70
2021,10,03,18,37,0.00
2021,10,03,18,38,0.00
2021,10,03,18,39,0.00
2021,10,03,18,40,0.00
2021,10,03,18,41,0.00
2021,10,03,18,42,0.00
2021,10,03,18,43,0.00
2021,10,03,18,44,0.00
2021,10,03,18,45,0.00
2021,10,03,18,46,0.00
2021,10,03,18,47,0.00
2021,10,03,18,48,0.00
2021,10,03,18,49,0.00
2021,10,03,18,50,0.00
2021,10,03,18,51,0.00
2021,10,03,18,52,0.00
2021,10,03,18,53,0.00
2021,10,03,18,54,0.00
2021,10,03,18,55,0.00
2021,10,03,18,56,0.00
2021,10,03,18,57,0.00
2021,10,03,18,58,0.00
2021,10,03,18,59,0.00
2021,10,03,19,00,0.00
2021,10,03,19,01,0.00
2021,10,03,19,02,0.00
2021,10,03,19,03,0.00
2021,10,03,19,04,0.00
2021,10,03,19,05,0.00
2021,10,03,19,06,0.00
2021,10,03,19,07,0.00
2021,10,03,19,08,0.00
2021,10,03,19,09,0.00
2021,10,03,19,10,0.00
2021,10,03,19,11,0.00
2021,10,03,19,12,0.00
2021,10,03,19,13,0.00
2021,10,03,19,14,0.00
2021,10,03,19,15,0.00
2021,10,03,19,16,0.00
2021,10,03,19,17,0.00
2021,10,03,19,18,0.00
2021,10,03,19,19,0.00
2021,10,03,19,20,0.00
2021,10,03,19,21,0.00
2021,10,03,19,22,0.00
2021,10,03,19,23,0.00
2021,10,03,19,24,0.00
2021,10,03,19,25,0.00
2021,10,03,19,26,0.00
2021,10,03,19,27,0.00
2021,10,03,19,28,0.00
2021,10,03,19,29,0.00
2021,10,03,19,30,0.00
2021,10,03,19,31,0.00
2021,10,03,19,32,0.00
2021,10,03,19,33,0.00
2021,10,03,19,34,0.00
2021,10,03,19,35,0.00
2021,10,03,19,36,0.00
2021,10,03,19,37,0.00
2021,10,03,19,38,0.00
2021,10,03,19,39,0.00
2021,10,03,19,40,0.00
2021,10,03,19,41,0.00
2021,10,03,19,42,0.00
2021,10,03,19,43,0.00
2021,10,03,19,44,0.00
2021,10,03,19,45,0.00
2021,10,03,19,46,0.00
2021,10,03,19,47,0.00
2021,10,03,19,48,0.00
2021,10,03,19,49,0.00
2021,10,03,19,50,0.00
2021,10,03,19,51,0.00
2021,10,03,19,52,0.00
2021,10,03,19,53,0.00
2021,10,03,19,54,0.00
2021,10,03,19,55,0.00
2021,10,03,19,56,0.00
2021,10,03,19,57,0.00
2021,10,03,19,58,0.00
2021,10,03,19,59,0.00
2021,10,03,20,00,0.00
2021,10,03,20,01,0.00
2021,10,03,20,02,0.00
2021,10,03,20,03,0.00
2021,10,03,20,04,0.00
2021,10,03,20,05,0.00
2021,10,03,20,06,0.00
2021,10,03,20,07,0.00
2021,10,03,20,08,0.00
2021,10,03,20,09,0.00
2021,10,03,20,10,0.00
2021,10,03,20,11,0.00
2021,10,03,20,12,0.00
2021,10,03,20,13,0.00
2021,10,03,20,14,0.00
2021,10,03,20,15,0.00
2021,10,03,20,16,0.00
2021,10,03,20,17,0.00
2021,10,03,20,18,0.00
2021,10,03,20,19,0.00
2021,10,03,20,20,0.00
2021,10,03,20,21,0.00
2021,10,03,20,22,0.00
2021,10,03,20,23,0.00
2021,10,03,20,24,0.00
2021,10,03,20,25,0.00
2021,10,03,20,26,0.00
2021,10,03,20,27,0.00
2021,10,03,20,28,0.00
2021,10,03,20,29,0.00
2021,10,03,20,30,0.00
2021,10,03,20,31,0.00
2021,10,03,20,32,0.00
2021,10,03,20,33,0.00
2021,10,03,20,34,0.00
2021,10,03,20,35,0.00
2021,10,03,20,36,0.00
2021,10,03,20,37,0.00
2021,10,03,20,38,0.00
2021,10,03,20,39,0.00
2021,10,03,20,40,0.00
2021,10,03,20,41,0.00
2021,10,03,20,42,0.00
2021,10,03,20,43,0.00
2021,10,03,20,44,0.00
2021,10,03,20,45,0.00
2021,10,03,20,46,0.00
2021,10,03,20,47,0.00
2021,10,03,20,48,0.00
2021,10,03,20,49,0.00
2021,10,03,20,50,0.00
2021,10,03,20,51,0.00
2021,10,03,20,52,0.00
2021,10,03,20,53,0.00
2021,10,03,20,54,0.00
2021,10,03,20,55,0.00
2021,10,03,20,56,0.00
2021,10,03,20,57,0.00
2021,10,03,20,58,0.00
2021,10,03,20,59,0.00
2021,10,03,21,00,0.00
2021,10,03,21,01,0.00
2021,10,03,21,02,0.00
2021,10,03,21,03,0.00
2021,10,03,21,04,0.00
2021,10,03,21,05,0.00
2021,10,03,21,06,0.00
2021,10,03,21,07,0.00
2021,10,03,21,08,0.00
2021,10,03,21,09,0.00
2021,10,03,21,10,0.00
2021,10,03,21,11,0.00
2021,10,03,21,12,0.00
2021,10,03,21,13,0.00
2021,10,03,21,14,0.00
2021,10,03,21,15,0.00
2021,10,03,21,16,0.00
2021,10,03,21,17,0.00
2021,10,03,21,18,0.00
2021,10,03,21,19,0.00
2021,10,03,21,20,0.00
2021,10,03,21,21,0.00
2021,10,03,21,22,0.00
2021,10,03,21,23,0.00
2021,10,03,21,24,0.00
2021,10,03,21,25,0.00
2021,10,03,21,26,0.00
2021,10,03,21,27,0.00
2021,10,03,21,28,0.00
2021,10,03,21,29,0.00
2021,10,03,21,30,0.00
2021,10,03,21,31,0.00
2021,10,03,21,32,0.00
2021,10,03,21,33,0.00
2021,10,03,21,34,0.00
2021,10,03,21,35,0.00
2021,10,03,21,36,0.00
2021,10,03,21,37,0.00
2021,10,03,21,38,0.00
2021,10,03,21,39,0.00
2021,10,03,21,40,0.00
2021,10,03,21,41,0.00
2021,10,03,21,42,0.00
2021,10,03,21,43,0.00
2021,10,03,21,44,0.00
2021,10,03,21,45,0.00
2021,10,03,21,46,0.00
2021,10,03,21,47,0.00
2021,10,03,21,48,0.00
2021,10,03,21,49,0.00
2021,10,03,21,50,0.00
2021,10,03,21,51,0.00
2021,10,03,21,52,0.00
2021,10,03,21,53,0.00
2021,10,03,21,54,0.00
2021,10,03,21,55,0.00
2021,10,03,21,56,0.00
2021,10,03,21,57,0.00
2021,10,03,21,58,0.00
2021,10,03,21,59,0.00
2021,10,03,22,00,0.00
2021,10,03,22,01,0.00
2021,10,03,22,02,0.00
2021,10,03,22,03,0.00
2021,10,03,22,04,0.00
2021,10,03,22,05,0.00
2021,10,03,22,06,0.00
2021,10,03,22,07,0.00
2021,10,03,22,08,0.00
2021,10,03,22,09,0.00
2021,10,03,22,10,0.00
2021,10,03,22,11,0.00
2021,10,03,22,12,0.00
2021,10,03,22,13,0.00
2021,10,03,22,14,0.00
2021,10,03,22,15,0.00
2021,10,03,22,16,0.00
2021,10,03,22,17,0.00
2021,10,03,22,18,0.00
2021,10,03,22,19,0.00
2021,10,03,22,20,0.00
2021,10,03,22,21,0.00
2021,10,03,22,22,0.00
2021,10,03,22,23,0.00
2021,10,03,22,24,0.00
2021,10,03,22,25,0.00
2021,10,03,22,26,0.00
2021,10,03,22,27,0.00
2021,10,03,22,28,0.00
2021,10,03,22,29,0.00
2021,10,03,22,30,0.00
2021,10,03,22,31,0.00
2021,10,03,22,32,0.00
2021,10,03,22,33,0.00
2021,10,03,22,34,0.00
2021,10,03,22,35,0.00
2021,10,03,22,36,0.00
2021,10,03,22,37,0.00
2021,10,03,22,38,0.00
2021,10,03,22,39,0.00
2021,10,03,22,40,0.00
2021,10,03,22,41,0.00
2021,10,03,22,42,0.00
2021,10,03,22,43,0.00
2021,10,03,22,44,0.00
2021,10,03,22,45,0.00
2021,10,03,22,46,0.00
2021,10,03,22,47,0.00
2021,10,03,22,48,0.00
2021,10,03,22,49,0.00
2021,10,03,22,50,0.00
2021,10,03,22,51,0.00
2021,10,03,22,52,0.00
2021,10,03,22,53,0.00
2021,10,03,22,54,0.00
2021,10,03,22,55,0.00
2021,10,03,22,56,0.00
2021,10,03,22,57,0.00
2021,10,03,22,58,0.00
2021,10,03,22,59,0.00
2021,10,03,23,00,0.00
2021,10,03,23,01,0.00
2021,10,03,23,02,0.00
2021,10,03,23,03,0.00
2021,10,03,23,04,0.00
2021,10,03,23,05,0.00
2021,10,03,23,06,0.00
2021,10,03,23,07,0.00
2021,10,03,23,08,0.00
2021,10,03,23,09,0.00
2021,10,03,23,10,0.00
2021,10,03,23,11,0.00
2021,10,03,23,12,0.00
2021,10,03,23,13,0.00
2021,10,03,23,14,0.00
2021,10,03,23,15,0.00
2021,10,03,23,16,0.00
2021,10,03,23,17,0.00
2021,10,03,23,18,0.00
2021,10,03,23,19,0.00
2021,10,03,23,20,0.00
2021,10,03,23,21,0.00
2021,10,03,23,22,0.00
2021,10,03,23,23,0.00
2021,10,03,23,24,0.00
2021,10,03,23,25,0.00
2021,10,03,23,26,0.00
2021,10,03,23,27,0.00
2021,10,03,23,28,0.00
2021,10,03,23,29,0.00
2021,10,03,23,30,0.00
2021,10,03,23,31,0.00
2021,10,03,23,32,0.00
2021,10,03,23,33,0.00
2021,10,03,23,34,0.00
2021,10,03,23,35,0.00
2021,10,03,23,36,0.00
2021,10,03,23,37,0.00
2021,10,03,23,38,0.00
2021,10,03,23,39,0.00
2021,10,03,23,40,0.00
2021,10,03,23,41,0.00
2021,10,03,23,42,0.00
2021,10,03,23,43,0.00
2021,10,03,23,44,0.00
2021,10,03,23,45,0.00
2021,10,03,23,46,0.00
2021,10,03,23,47,0.00
2021,10,03,23,48,0.00
2021,10,03,23,49,0.00
2021,10,03,23,50,0.00
2021,10,03,23,51,0.00
2021,10,03,23,52,0.00
2021,10,03,23,53,0.00
2021,10,03,23,54,0.00
2021,10,03,23,55,0.00
2021,10,03,23,56,0.00
2021,10,03,23,57,0.00
2021,10,03,23,58,0.00
2021,10,03,23,59,0.00
